Weather History for Carlsbad, NM

Change the Weather History Date:

Saturday, January 5, 2013

  Actual Average Record
Temperature  
Mean Temperature 31 °F -  
Max Temperature 45 °F 53 °F 75 °F (1956)
Min Temperature 17 °F 26 °F -2 °F (1972)
Degree Days  
Heating Degree Days 34    
Moisture  
Dew Point 21 °F    
Average Humidity 85    
Maximum Humidity 100    
Minimum Humidity 56    
Precipitation  
Precipitation 0.00 in - - ()
Sea Level Pressure  
Sea Level Pressure 30.26 in    
Wind  
Wind Speed 3 mph (ENE)    
Max Wind Speed 12 mph    
Max Gust Speed -    
Visibility 5 miles    
Events Fog    
Averages and records for this station are not official NWS values.
T = Trace of Precipitation, MM = Missing Value Source: NWS Daily Summary

Daily Weather History Graph

Daily Weather History Graph

Search for Another Location

Airport:

Trip Planner

Search our weather history database for the weather conditions in past years. The results will help you decide how hot, cold, wet, or windy it might be!

Date:

Astronomy

Jan. 05, 2013 Rise Set
Actual Time 6:59 AM MST 5:06 PM MST
Civil Twilight 6:32 AM MST 5:33 PM MST
Nautical Twilight 6:01 AM MST 6:03 PM MST
Astronomical Twilight 5:31 AM MST 6:33 PM MST
Moon 12:19 AM MST (1/5) 11:47 AM MST (1/5)
Length of Visible Light 11h 01m
Length of Day
10h 07m
Last Quarter, 43% of the Moon is Illuminated
Jan 5
Last Quarter
Jan 11
New
Jan 18
First Quarter
Jan 26
Full
Feb 3
Last Quarter

Hourly Weather History & Observations

Time (MST) Temp. Windchill Dew Point Humidity Pressure Visibility Wind Dir Wind Speed Gust Speed Precip Events Conditions
12:10 AM 23.0 °F 17.0 °F 21.2 °F 93% 30.23 in 0.5 mi East 4.6 mph - N/A Fog Light Freezing Fog
12:19 AM 23.0 °F 15.8 °F 21.2 °F 93% 30.23 in 0.2 mi ESE 5.8 mph - N/A Fog Light Freezing Fog
12:48 AM 21.2 °F 16.4 °F 21.2 °F 100% 30.22 in 0.2 mi NNE 3.5 mph - N/A Fog Light Freezing Fog
12:53 AM 21.9 °F 15.7 °F 19.9 °F 92% 30.26 in 0.2 mi North 4.6 mph - N/A Fog Light Freezing Fog
1:04 AM 21.2 °F 16.4 °F 19.4 °F 93% 30.22 in 0.2 mi North 3.5 mph - N/A Fog Light Freezing Fog
1:53 AM 19.9 °F 14.9 °F 18.0 °F 92% 30.25 in 0.5 mi East 3.5 mph - N/A Fog Light Freezing Fog
2:53 AM 18.0 °F 5.4 °F 15.1 °F 88% 30.27 in 0.8 mi South 11.5 mph - N/A   Mist
3:19 AM 19.4 °F 14.3 °F 15.8 °F 86% 30.21 in 1.5 mi NE 3.5 mph - N/A   Overcast
3:28 AM 17.6 °F - 15.8 °F 93% 30.20 in 0.2 mi Calm Calm - N/A Fog Light Freezing Fog
3:44 AM 17.6 °F - 15.8 °F 93% 30.20 in 0.8 mi Calm Calm - N/A   Mist
3:51 AM 17.6 °F - 14.0 °F 86% 30.20 in 2.0 mi Calm Calm - N/A   Scattered Clouds
3:53 AM 17.1 °F - 14.0 °F 88% 30.26 in 2.5 mi Calm Calm - N/A   Scattered Clouds
4:00 AM 17.6 °F - 14.0 °F 86% 30.20 in 4.0 mi Calm Calm - N/A   Partly Cloudy
4:18 AM 17.6 °F - 14.0 °F 86% 30.20 in 1.8 mi Calm Calm - N/A   Mostly Cloudy
4:40 AM 17.6 °F - 14.0 °F 86% 30.21 in 0.5 mi Calm Calm - N/A Fog Light Freezing Fog
4:49 AM 17.6 °F 12.3 °F 14.0 °F 86% 30.21 in 0.2 mi NNE 3.5 mph - N/A Fog Light Freezing Fog
4:53 AM 18.0 °F - 15.1 °F 88% 30.26 in 0.2 mi Calm Calm - N/A Fog Light Freezing Fog
5:03 AM 17.6 °F - 15.8 °F 93% 30.21 in 0.5 mi Calm Calm - N/A Fog Light Freezing Fog
5:41 AM 17.6 °F - 15.8 °F 93% 30.21 in 0.2 mi Calm Calm - N/A Fog Light Freezing Fog
5:53 AM 18.0 °F 12.7 °F 15.1 °F 88% 30.26 in 0.5 mi North 3.5 mph - N/A Fog Light Freezing Fog
6:53 AM 17.1 °F - 14.0 °F 88% 30.28 in 0.2 mi Calm Calm - N/A Fog Light Freezing Fog
7:45 AM 19.4 °F - 17.6 °F 93% 30.24 in 1.0 mi Calm Calm - N/A   Mist
7:47 AM 19.4 °F 14.3 °F 17.6 °F 93% 30.24 in 2.0 mi East 3.5 mph - N/A   Scattered Clouds
7:53 AM 21.0 °F 13.4 °F 17.1 °F 85% 30.29 in 8.0 mi NE 5.8 mph - N/A   Scattered Clouds
8:53 AM 23.0 °F 15.8 °F 21.0 °F 92% 30.30 in 10.0 mi South 5.8 mph - N/A   Clear
9:53 AM 28.0 °F - 27.0 °F 96% 30.30 in 10.0 mi Calm Calm - N/A   Clear
10:53 AM 30.9 °F - 28.0 °F 89% 30.28 in 10.0 mi Calm Calm - N/A   Clear
11:53 AM 33.1 °F - 28.9 °F 85% 30.26 in 10.0 mi Calm Calm - N/A   Clear
12:53 PM 37.0 °F 32.4 °F 28.9 °F 73% 30.24 in 10.0 mi SSE 5.8 mph - N/A   Clear
1:53 PM 41.0 °F 37.1 °F 30.0 °F 65% 30.23 in 10.0 mi SSE 5.8 mph - N/A   Clear
2:53 PM 44.1 °F - 32.0 °F 63% 30.23 in 10.0 mi Calm Calm - N/A   Clear
3:53 PM 45.0 °F 42.6 °F 30.0 °F 56% 30.25 in 10.0 mi South 4.6 mph - N/A   Clear
4:53 PM 42.1 °F 40.2 °F 30.9 °F 65% 30.26 in 10.0 mi WSW 3.5 mph - N/A   Clear
5:53 PM 39.0 °F 35.7 °F 30.0 °F 70% 30.28 in 10.0 mi NW 4.6 mph - N/A   Clear
6:53 PM 36.0 °F 31.1 °F 30.0 °F 79% 30.30 in 10.0 mi West 5.8 mph - N/A   Clear
7:53 PM 33.1 °F 25.5 °F 27.0 °F 78% 30.32 in 10.0 mi West 9.2 mph - N/A   Clear
8:53 PM 32.0 °F - 26.1 °F 79% 30.33 in 10.0 mi Calm Calm - N/A   Clear
9:53 PM 30.0 °F - 25.0 °F 82% 30.35 in 10.0 mi Calm Calm - N/A   Clear
10:53 PM 30.0 °F 24.1 °F 27.0 °F 88% 30.38 in 10.0 mi NNE 5.8 mph - N/A   Clear
11:53 PM 30.9 °F 22.8 °F 27.0 °F 85% 30.37 in 10.0 mi WNW 9.2 mph - N/A   Clear